Location: Kaseke
(18.0171°S, 31.0526°E)
Time: 12:32:32
(UTC+00:00)

Cosmos 2266 Rocket - Pass Details

Date: 14 July 2020
Orbit: 935 x 1007 km, 82.9° (Epoch: 07 August)

Event Time Altitude Azimuth Distance (km) Brightness Sun altitude
Rises 03:43:00 0° 3° (N) 3,709 7.3 -10.7°
Reaches altitude 10° 03:45:32 10° 5° (N) 2,760 6.7 -10.2°
Maximum altitude 03:51:50 69° 87° (E) 1,058 4.5 -8.7°
Drops below altitude 10° 03:58:05 10° 169° (S) 2,743 6.3 -7.4°
Sets 04:00:36 0° 171° (S) 3,685 6.9 -6.8°
